| time (UTC) | temp F | wind direction | speed MPH | gust MPH | rain 1hr in | rain 24hr in | rain mn in | humidity % | barometer mb |
| 20260508173017 | 71 | 152 | 2.0 | 4.0 | 0.01 | 0.35 | 0.21 | 85 | 1014.6 |
| 20260508171518 | 71 | 111 | 2.0 | 4.0 | 0.02 | 0.35 | 0.21 | 85 | 1014.7 |
| 20260508163016 | 71 | 113 | 1.0 | 4.0 | 0.02 | 0.38 | 0.20 | 87 | 1015.4 |
| 20260508161528 | 70 | 101 | 1.0 | 3.0 | 0.02 | 0.38 | 0.19 | 87 | 1015.6 |
| 20260508160018 | 70 | 58 | 0.0 | 4.0 | 0.02 | 0.40 | 0.19 | 87 | 1015.7 |
| 20260508154509 | 70 | 104 | 0.0 | 3.0 | 0.02 | 0.42 | 0.18 | 88 | 1015.9 |
| 20260508153017 | 69 | 1 | 0.0 | 4.0 | 0.02 | 0.44 | 0.18 | 88 | 1015.9 |
| 20260508151516 | 69 | 114 | 1.0 | 5.0 | 0.02 | 0.47 | 0.17 | 87 | 1015.7 |
| 20260508150021 | 70 | 108 | 0.0 | 4.0 | 0.03 | 0.52 | 0.17 | 88 | 1015.8 |
| 20260508144523 | 69 | 112 | 2.0 | 6.0 | 0.03 | 0.52 | 0.16 | 86 | 1015.8 |
| 20260508143014 | 69 | 118 | 2.0 | 6.0 | 0.05 | 0.52 | 0.16 | 87 | 1015.4 |
| 20260508141516 | 68 | 75 | 2.0 | 7.0 | 0.05 | 0.52 | 0.15 | 88 | 1015.5 |
| 20260508140020 | 67 | 133 | 3.0 | 5.0 | 0.06 | 0.51 | 0.14 | 89 | 1015.8 |
| 20260508134529 | 66 | 110 | 2.0 | 4.0 | 0.06 | 0.50 | 0.13 | 90 | 1016.1 |
| 20260508133021 | 66 | 129 | 0.0 | 3.0 | 0.06 | 0.48 | 0.11 | 90 | 1016.3 |
| 20260508130018 | 65 | 6 | 1.0 | 3.0 | 0.04 | 0.45 | 0.08 | 90 | 1016.7 |
| 20260508124525 | 66 | 339 | 1.0 | 2.0 | 0.03 | 0.44 | 0.07 | 89 | 1016.4 |
| 20260508123020 | 65 | 125 | 0.0 | 5.0 | 0.02 | 0.42 | 0.05 | 90 | 1016.3 |
| 20260508120003 | 65 | 205 | 0.0 | 4.0 | 0.01 | 0.41 | 0.04 | 89 | 1015.9 |
| 20260508114506 | 65 | 153 | 1.0 | 3.0 | 0.01 | 0.41 | 0.04 | 90 | 1015.3 |
| 20260508113008 | 65 | 302 | 0.0 | 3.0 | 0.00 | 0.40 | 0.03 | 90 | 1015.5 |
| 20260508111515 | 65 | 143 | 0.0 | 2.0 | 0.00 | 0.40 | 0.03 | 90 | 1015.1 |
| 20260508110027 | 65 | 179 | 0.0 | 2.0 | 0.00 | 0.40 | 0.03 | 90 | 1015.5 |
| 20260508104504 | 65 | 162 | 0.0 | 2.0 | 0.00 | 0.40 | 0.03 | 90 | 1015.1 |
| 20260508103013 | 65 | 87 | 0.0 | 2.0 | 0.01 | 0.40 | 0.03 | 90 | 1015.1 |
| 20260508101511 | 65 | 331 | 0.0 | 4.0 | 0.01 | 0.40 | 0.03 | 90 | 1014.9 |
| 20260508100013 | 65 | 140 | 1.0 | 2.0 | 0.01 | 0.40 | 0.03 | 90 | 1014.4 |
| 20260508093007 | 65 | 310 | 0.0 | 3.0 | 0.00 | 0.39 | 0.02 | 90 | 1014.3 |
| 20260508091512 | 65 | 125 | 0.0 | 2.0 | 0.00 | 0.39 | 0.02 | 90 | 1014.4 |
| 20260508090012 | 65 | 329 | 0.0 | 2.0 | 0.00 | 0.39 | 0.02 | 91 | 1014.4 |
| 20260508084513 | 66 | 127 | 0.0 | 2.0 | 0.00 | 0.39 | 0.02 | 91 | 1014.1 |
| 20260508083021 | 66 | 115 | 1.0 | 4.0 | 0.01 | 0.39 | 0.02 | 91 | 1014.1 |
| 20260508081508 | 66 | 186 | 0.0 | 3.0 | 0.01 | 0.39 | 0.02 | 91 | 1014.4 |
| 20260508080010 | 66 | 320 | 0.0 | 2.0 | 0.01 | 0.39 | 0.02 | 91 | 1014.4 |
| 20260508074515 | 66 | 205 | 1.0 | 2.0 | 0.01 | 0.39 | 0.02 | 91 | 1014.1 |
| 20260508073020 | 66 | 117 | 0.0 | 2.0 | 0.00 | 0.38 | 0.01 | 91 | 1014.4 |
| 20260508071532 | 66 | 84 | 0.0 | 2.0 | 0.00 | 0.38 | 0.01 | 90 | 1014.5 |
| 20260508070008 | 66 | 313 | 0.0 | 2.0 | 0.00 | 0.38 | 0.01 | 91 | 1014.5 |
| 20260508064512 | 66 | 269 | 0.0 | 2.0 | 0.00 | 0.38 | 0.01 | 91 | 1014.9 |
| 20260508063021 | 67 | 332 | 1.0 | 2.0 | 0.00 | 0.38 | 0.01 | 91 | 1014.9 |
| 20260508061523 | 67 | 330 | 0.0 | 2.0 | 0.01 | 0.38 | 0.01 | 91 | 1014.5 |
| 20260508060028 | 67 | 328 | 0.0 | 2.0 | 0.01 | 0.38 | 0.01 | 90 | 1015.1 |
| 20260508054534 | 67 | 137 | 1.0 | 5.0 | 0.01 | 0.38 | 0.01 | 90 | 1014.7 |
| 20260508053016 | 68 | 315 | 0.0 | 2.0 | 0.01 | 0.38 | 0.01 | 90 | 1014.7 |
| 20260508051518 | 68 | 330 | 1.0 | 4.0 | 0.00 | 0.37 | 0.00 | 90 | 1015.3 |
| 20260508050024 | 68 | 356 | 1.0 | 5.0 | 0.00 | 0.37 | 0.00 | 90 | 1015.2 |
| 20260508044528 | 68 | 319 | 1.0 | 2.0 | 0.00 | 0.37 | 0.37 | 90 | 1014.9 |
| 20260508043016 | 69 | 326 | 1.0 | 3.0 | 0.00 | 0.37 | 0.37 | 90 | 1015.0 |
| 20260508041520 | 69 | 310 | 0.0 | 2.0 | 0.00 | 0.37 | 0.37 | 89 | 1014.6 |
| 20260508040031 | 69 | 281 | 0.0 | 2.0 | 0.01 | 0.37 | 0.37 | 89 | 1014.9 |
| 20260508034533 | 70 | 253 | 1.0 | 6.0 | 0.01 | 0.37 | 0.37 | 88 | 1015.0 |
| 20260508033017 | 70 | 284 | 2.0 | 7.0 | 0.01 | 0.37 | 0.37 | 87 | 1015.1 |
| 20260508031519 | 71 | 351 | 2.0 | 9.0 | 0.01 | 0.37 | 0.37 | 87 | 1014.9 |
| 20260508030022 | 72 | 359 | 2.0 | 3.0 | 0.00 | 0.36 | 0.36 | 87 | 1015.0 |
| 20260508024526 | 72 | 325 | 1.0 | 2.0 | 0.00 | 0.36 | 0.36 | 87 | 1015.0 |
| 20260508023023 | 73 | 359 | 1.0 | 5.0 | 0.01 | 0.36 | 0.36 | 87 | 1015.1 |
| 20260508021517 | 73 | 313 | 2.0 | 5.0 | 0.01 | 0.36 | 0.36 | 86 | 1014.9 |
| 20260508020021 | 73 | 326 | 2.0 | 3.0 | 0.01 | 0.36 | 0.36 | 87 | 1014.7 |
| 20260508014534 | 73 | 333 | 0.0 | 2.0 | 0.01 | 0.36 | 0.36 | 88 | 1014.4 |
| 20260508013025 | 73 | 324 | 0.0 | 2.0 | 0.00 | 0.35 | 0.35 | 87 | 1014.2 |
| 20260508011528 | 73 | 302 | 1.0 | 3.0 | 0.01 | 0.35 | 0.35 | 87 | 1013.9 |
| 20260508010027 | 74 | 345 | 0.0 | 4.0 | 0.01 | 0.35 | 0.35 | 87 | 1013.7 |
| 20260508004509 | 74 | 323 | 0.0 | 4.0 | 0.01 | 0.35 | 0.35 | 87 | 1013.6 |
| 20260508003008 | 74 | 324 | 1.0 | 5.0 | 0.01 | 0.35 | 0.35 | 87 | 1013.7 |
| 20260508001513 | 75 | 299 | 2.0 | 5.0 | 0.00 | 0.34 | 0.34 | 86 | 1013.6 |
| 20260508000017 | 75 | 296 | 2.0 | 6.0 | 0.01 | 0.34 | 0.34 | 87 | 1013.5 |
| 20260507234521 | 76 | 322 | 1.0 | 6.0 | 0.01 | 0.34 | 0.34 | 87 | 1013.7 |
| 20260507233006 | 76 | 1 | 1.0 | 4.0 | 0.01 | 0.34 | 0.34 | 87 | 1013.4 |
| 20260507231512 | 77 | 359 | 3.0 | 4.0 | 0.01 | 0.34 | 0.34 | 87 | 1013.5 |
| 20260507230021 | 78 | 63 | 0.0 | 0.0 | 0.01 | 0.33 | 0.33 | 87 | 1013.4 |
| 20260507224518 | 78 | 313 | 1.0 | 3.0 | 0.01 | 0.33 | 0.33 | 86 | 1013.3 |
| 20260507223024 | 78 | 354 | 1.0 | 3.0 | 0.01 | 0.33 | 0.33 | 87 | 1013.4 |
| 20260507221510 | 78 | 356 | 1.0 | 3.0 | 0.01 | 0.33 | 0.33 | 86 | 1013.3 |
| 20260507220014 | 77 | 292 | 2.0 | 4.0 | 0.01 | 0.32 | 0.32 | 88 | 1013.2 |
| 20260507214527 | 77 | 311 | 2.0 | 3.0 | 0.01 | 0.32 | 0.32 | 88 | 1013.2 |
| 20260507213019 | 77 | 285 | 0.0 | 4.0 | 0.02 | 0.32 | 0.32 | 89 | 1013.3 |
| 20260507211534 | 77 | 360 | 1.0 | 3.0 | 0.02 | 0.32 | 0.32 | 90 | 1013.2 |
| 20260507210010 | 76 | 307 | 0.0 | 2.0 | 0.01 | 0.31 | 0.31 | 90 | 1013.2 |
| 20260507204520 | 76 | 360 | 1.0 | 2.0 | 0.02 | 0.31 | 0.31 | 91 | 1013.3 |
| 20260507203023 | 75 | 324 | 1.0 | 2.0 | 0.01 | 0.30 | 0.30 | 92 | 1013.4 |
| 20260507201521 | 75 | 351 | 1.0 | 3.0 | 0.02 | 0.30 | 0.30 | 92 | 1013.5 |
| 20260507200025 | 74 | 124 | 0.0 | 2.0 | 0.02 | 0.30 | 0.30 | 93 | 1013.5 |
| 20260507194514 | 74 | 312 | 0.0 | 2.0 | 0.02 | 0.29 | 0.29 | 93 | 1013.5 |
| 20260507193018 | 73 | 158 | 0.0 | 2.0 | 0.03 | 0.29 | 0.29 | 93 | 1013.7 |
| 20260507191523 | 72 | 115 | 0.0 | 2.0 | 0.02 | 0.28 | 0.28 | 93 | 1013.9 |
| 20260507190024 | 72 | 128 | 0.0 | 2.0 | 0.03 | 0.28 | 0.28 | 93 | 1013.9 |
| 20260507184514 | 72 | 301 | 0.0 | 0.0 | 0.03 | 0.27 | 0.27 | 93 | 1014.2 |
| 20260507183033 | 72 | 301 | 0.0 | 2.0 | 0.03 | 0.26 | 0.26 | 93 | 1014.3 |
| 20260507181521 | 72 | 37 | 0.0 | 3.0 | 0.03 | 0.26 | 0.26 | 92 | 1014.1 |
| 20260507180027 | 72 | 350 | 0.0 | 2.0 | 0.03 | 0.25 | 0.25 | 92 | 1014.4 |
| 20260507174524 | 72 | 104 | 0.0 | 2.0 | 0.04 | 0.24 | 0.24 | 93 | 1014.2 |